Location: *
(48.8692°N, 2.4181°E)
Time: 22:40:25
(UTC+00:00)

Daily predictions for brighter satellites

Satellite Brightness Start Highest point End
(mag) Time Altitude Azimuth Time Altitude Azimuth Time Altitude Azimuth
IRIDIUM 106 4.4 20:17:43 10° N 20:22:59 86° W 20:28:12 10° S
ERS-1 Rocket 3.8 20:18:36 10° SE 20:23:10 36° ENE 20:27:46 10° N
Iridium 4 Rocket 4.3 20:17:40 10° N 20:23:21 45° E 20:28:57 10° SSE
MetOp-A 4.4 20:20:10 10° S 20:25:31 74° WSW 20:30:54 10° NNW
Cosmos 2058 3.0 20:23:08 10° S 20:27:15 60° E 20:31:26 10° NNE
Cosmos 1242 Rocket 3.5 20:24:08 10° SSE 20:27:21 30° E 20:30:35 10° NNE
SL-08 RB Rocket 4.4 20:26:54 10° S 20:31:19 55° W 20:35:44 10° NNW
Cosmos 1992 Rocket 4.4 20:28:37 10° NNW 20:33:47 53° ENE 20:38:54 10° SE
Cosmos 2322 Rocket 2.9 20:32:40 10° SSE 20:37:45 34° ESE 20:42:49 10° NE
Cosmos 1076 Rocket 4.1 20:35:29 10° SSW 20:39:49 63° WNW 20:44:11 10° N
Okean 3 Rocket 3.6 20:35:20 10° S 20:39:51 72° E 20:44:24 10° NNE
CZ-2C R/B 3.0 20:34:52 10° NNE 20:39:52 42° E 20:44:46 10° SSE
Cosmos 1461 2.8 20:35:59 10° NW 20:39:57 76° SW 20:43:56 10° SSE
OPS 6432 4.2 20:36:31 10° SW 20:40:06 89° NE 20:43:06 10° NE
SL-16 R/B 2.7 20:36:09 10° S 20:41:24 40° ESE 20:46:40 10° NE
Cosmos 1464 Rocket 4.2 20:36:07 10° SSE 20:42:11 54° E 20:48:14 10° NNE
USA 215 3.7 20:36:33 10° NE 20:43:03 70° NNW 20:49:34 10° WSW
ADEOS Rocket 2.8 20:37:17 10° NNE 20:43:05 88° ESE 20:48:35 10° SSW
Cosmos 371 Rocket 3.8 20:38:33 10° NNW 20:43:23 59° WSW 20:48:09 10° S
Spot 2 Rocket 3.8 20:39:09 10° S 20:44:13 70° WSW 20:49:22 10° NNW
Lacrosse 5 rocket 3.4 20:41:27 10° W 20:45:41 34° NNW 20:49:55 10° NE
ATLAS CENTAUR R/B 4.4 20:44:49 10° NNW 20:47:13 13° N 20:49:35 10° NE
SL-8 R/B 3.7 20:47:26 10° W 20:52:13 87° S 20:57:01 10° E
Cosmos 332 Rocket 4.4 20:50:04 10° NNW 20:54:46 54° WSW 20:59:26 10° S
Cosmos 1408 4.1 20:52:46 12° SE 20:55:17 22° E 20:58:11 10° NE
EO 1 Del DPAF 3.3 20:51:32 10° NNE 20:55:17 55° E 20:59:01 10° S
Cosmos 1271 Rocket 4.1 20:52:22 10° SW 20:56:05 43° WNW 20:59:52 10° N
Cosmos 1825 3.9 20:54:50 12° SE 20:57:02 18° E 20:59:37 10° NE
USA 245 1.9 20:57:37 12° S 20:59:38 75° WSW 21:01:50 10° NNW
Terra 2.6 20:56:43 12° SE 21:00:49 39° ENE 21:05:15 10° N
Cosmos 1515 Rocket 3.9 20:58:51 10° N 21:03:08 52° ENE 21:06:48 13° SSE
Cosmos 1844 Rocket 3.8 20:58:29 10° NNW 21:03:41 35° NE 21:08:49 10° ESE
Cosmos 2151 3.0 21:02:36 10° S 21:06:53 87° E 21:11:13 10° N
Cosmos 2263 Rocket 2.5 21:01:31 10° NNW 21:07:11 66° WSW 21:12:36 11° SSE
Cosmos 1766 Rocket 3.6 21:02:52 10° S 21:07:12 84° W 21:11:34 10° N
In-Cosmos 22 Rocket 4.1 21:02:13 10° S 21:07:36 79° E 21:13:10 10° NNE
H-2A R/B 4.2 21:04:24 10° SW 21:08:46 24° W 21:13:07 10° NW
Cosmos 2084 3.8 21:07:13 10° SW 21:11:45 76° NW 21:16:09 10° NE
Cosmos 2228 Rocket 3.6 21:08:37 10° N 21:13:01 48° ENE 21:16:30 16° SSE
Cosmos 304 Rocket 4.0 21:09:34 10° NNW 21:14:23 70° WSW 21:18:41 13° SSE
Cosmos 44 Rocket 3.9 21:10:25 10° S 21:15:10 39° ESE 21:19:50 10° NE
Resurs 01 Rocket 4.0 21:13:06 10° SW 21:16:24 20° W 21:19:42 10° NW
Cosmos 1408 Rocket 3.5 21:12:46 10° S 21:17:05 86° E 21:21:25 10° N
USA 267 4.2 21:13:12 11° SSE 21:19:00 36° SW 21:24:58 10° WNW
Cosmos 1892 2.7 21:16:31 10° S 21:20:22 88° E 21:24:14 10° N
Cosmos 44 3.8 21:19:07 10° SW 21:24:21 68° NW 21:29:21 10° NE
Landsat 4 4.3 21:21:23 10° NNE 21:24:53 38° E 21:27:09 19° SSE
USA 81 4.5 21:21:13 10° N 21:26:22 49° ENE 21:30:08 18° SSE
IGS 5A 3.6 21:23:06 14° S 21:26:40 75° WSW 21:30:52 10° NNW
COSMOS 2428 4.4 21:26:54 13° ESE 21:28:48 16° E 21:32:04 10° ENE
Thor Agena Rocket 3.4 21:24:11 10° NNE 21:29:16 80° ESE 21:34:19 10° SSW
Aureole 1 Rocket 4.0 21:24:57 10° SSW 21:29:43 68° WNW 21:36:07 10° NNE
Cosmos 1933 3.5 21:28:34 10° N 21:32:37 61° ENE 21:35:13 21° SSE
SPOT 5 3.1 21:28:31 14° S 21:32:57 79° WSW 21:37:53 10° NNW
Cosmos 1844 4.4 21:28:30 10° NNW 21:33:52 44° NE 21:38:13 15° ESE
CARTOSAT-1 3.7 21:35:52 17° S 21:39:11 72° WSW 21:43:32 10° NNW
Cosmos 2251 Rocket 4.3 21:34:33 10° SW 21:39:41 54° WNW 21:44:50 10° NNE
Tiangong 2 2.4 21:37:41 10° WSW 21:40:13 22° S 21:40:26 22° S
ASTEX 1 4.0 21:39:15 10° NNE 21:44:00 42° E 21:46:55 21° SSE
Cosmos 407 Rocket 3.9 21:41:32 18° S 21:45:14 45° ESE 21:50:18 10° NE
SL-23 DEB 4.0 21:41:00 10° WNW 21:45:22 50° SSW 21:46:57 27° SSE
Cosmos 921 Rocket 3.7 21:41:53 10° NNW 21:45:57 46° WSW 21:49:02 17° S
Cosmos 1190 Rocket 4.4 21:44:58 19° SSE 21:48:15 42° ESE 21:53:10 10° NE
Cosmos 1140 Rocket 4.3 21:49:29 22° SSE 21:51:58 33° ESE 21:56:35 10° NE
Cosmos 2360 Rocket 2.2 21:47:33 10° SSW 21:53:04 62° ESE 21:58:38 10° NNE
Cosmos 1151 Rocket 4.3 21:51:17 10° NNW 21:55:18 36° W 21:59:07 11° SSW
ISS -2.8 21:58:13 28° ESE 21:58:13 28° ESE 22:00:29 10° E
Nadezhda 4 Rocket 4.5 21:52:06 10° NNW 21:58:17 58° W 22:03:43 13° SSW
Cosmos 2034 Rocket 4.5 21:52:46 10° SSW 21:58:55 62° WNW 22:05:11 10° N
Mayak -0.1 21:56:18 10° NNE 22:00:02 29° E 22:01:25 24° SE
Cosmos 1606 2.6 21:57:11 10° N 22:00:59 82° E 22:02:46 30° SSE
Gbstr 26 Del rocket 2.5 21:57:19 10° WSW 22:01:10 89° SSE 22:04:56 10° ENE
USA 229 DEB 3.9 21:56:03 12° S 22:01:52 47° ESE 22:08:23 10° NE
ERS-1 Rocket 4.2 21:57:30 11° SSW 22:01:58 34° W 22:06:35 10° NNW
USA 229 3.9 21:56:15 12° S 22:01:59 46° ESE 22:08:29 10° NE
Meteor 1-26 Rocket 4.2 21:56:55 10° N 22:02:40 86° ENE 22:06:16 23° SSE
Meteor 2-3 Rocket 3.8 21:59:45 19° S 22:03:53 68° E 22:09:41 10° NNE
Lacrosse 5 3.6 21:59:36 10° WNW 22:04:11 32° N 22:08:45 10° ENE
NOSS 3-1 (A) 4.3 22:03:50 22° SE 22:05:28 25° ESE 22:10:25 10° ENE
Cosmos 1500 Rocket 3.9 22:03:48 14° SSW 22:07:32 65° WNW 22:12:00 10° N
Cosmos 2279 Rocket 4.4 22:04:03 23° SSE 22:07:40 47° E 22:13:33 10° NNE
Sich 1 3.5 22:08:45 28° SE 22:10:27 42° E 22:14:30 10° NNE
MOS 1 Rocket 3.1 22:07:25 10° NNE 22:11:51 88° W 22:14:59 20° SSW
Cosmos 614 Rocket 3.9 22:08:32 21° S 22:11:53 64° ESE 22:16:55 10° NNE
Cosmos 1356 Rocket 4.0 22:08:07 10° NNW 22:12:18 54° W 22:14:48 23° SSW
Cosmos 1092 Rocket 4.2 22:07:09 10° NNW 22:13:23 67° W 22:17:54 19° S
Cosmos 1818 3.9 22:08:59 10° NW 22:14:26 62° NE 22:18:04 21° ESE
Cosmos 2333 4.5 22:14:43 24° S 22:17:54 49° ESE 22:23:21 10° NE
Cosmos 2333 Rocket 2.9 22:17:27 26° SSE 22:19:41 35° ESE 22:24:48 10° NE
CZ-2C R/B 4.3 22:15:25 10° N 22:20:02 32° WNW 22:24:35 10° SW
ARGOS Delta rocket 4.5 22:19:29 24° ESE 22:21:32 39° ENE 22:25:45 10° N
Cosmos 2322 Rocket 3.2 22:16:09 10° SW 22:21:38 47° NW 22:27:10 10° NNE
Cosmos 1428 Rocket 4.5 22:16:40 10° N 22:22:56 89° E 22:26:49 25° S
Helios 1B rocket 3.7 22:20:45 10° NE 22:24:11 25° E 22:24:58 23° ESE
Cosmos 2219 Rocket 2.8 22:23:07 27° SSE 22:25:27 39° ESE 22:30:41 10° NE
SL-16 R/B 3.5 22:20:12 10° WSW 22:25:31 40° NW 22:30:53 10° NNE
USA 215 4.4 22:19:27 10° ENE 22:25:36 45° N 22:31:45 10° WNW
Lacrosse 5 rocket 3.4 22:21:45 10° NW 22:25:52 31° N 22:29:56 10° ENE
Cosmos 2278 Rocket 3.2 22:20:43 10° NNW 22:26:03 40° NE 22:30:03 17° ESE
SeaSat 1 3.3 22:23:10 10° NE 22:27:35 32° ESE 22:28:52 28° SE
ATLAS CENTAUR R/B 3.5 22:23:37 10° NNW 22:27:48 28° NNE 22:31:45 10° E
SL-19 R/B 3.9 22:25:03 10° NNE 22:28:33 77° WNW 22:29:40 37° SSW
Cosmos 1408 4.3 22:27:06 11° SW 22:30:11 30° WNW 22:33:32 10° N
Cosmos 2084 Rocket 3.5 22:26:32 10° NW 22:30:57 75° NE 22:32:58 31° SE
Cosmos 1825 3.4 22:29:38 16° SW 22:32:16 38° WNW 22:35:50 10° N
Cosmos 2322 3.6 22:30:10 18° SSW 22:34:23 80° ESE 22:40:05 10° NNE
SL-8 R/B 3.6 22:29:58 10° W 22:34:43 64° SSW 22:37:07 28° SE
Cosmos 1707 Rocket 3.5 22:31:50 10° N 22:36:17 86° W 22:38:09 35° S
Cosmos 1634 Rocket 4.2 22:31:45 18° SSW 22:36:36 72° WNW 22:42:51 10° N
Cosmos 1655 Rocket 4.0 22:31:35 10° N 22:37:53 74° E 22:41:19 28° SSE
Terra 3.3 22:35:36 15° SSW 22:38:39 29° W 22:42:49 10° NW
Spot 4 3.8 22:38:42 33° S 22:40:54 84° WSW 22:45:43 10° NNW
Cosmos 1782 2.9 22:37:39 10° NNW 22:41:42 73° W 22:43:07 38° S
Meteor 1-10 Rocket 4.3 22:37:25 10° N 22:43:02 72° ENE 22:45:53 30° SSE
Cosmos 1607 3.9 22:36:56 10° NW 22:43:06 79° SW 22:46:25 29° SSE
Cosmos 292 Rocket 4.3 22:39:37 10° NNW 22:44:18 48° WSW 22:46:23 29° SSW
SL-4 R/B 2.8 22:44:46 36° S 22:45:40 39° SE 22:50:02 10° ENE
Cosmos 1844 Rocket 3.2 22:42:19 10° NW 22:47:46 48° WSW 22:50:28 27° SSW
Cosmos 1633 3.4 22:48:08 33° ESE 22:48:29 34° E 22:51:45 10° NNE
Cosmos 1862 3.8 22:48:10 38° SE 22:49:04 45° E 22:52:55 10° NNE
Cosmos 2026 Rocket 4.5 22:44:30 10° NNW 22:50:21 51° W 22:54:08 22° SSW
YAOGAN 11 4.0 22:49:09 39° SSE 22:50:42 76° ENE 22:55:01 10° NNW
Cosmos 1400 Rocket 4.1 22:47:14 10° N 22:51:00 32° ENE 22:52:28 25° ESE
Cosmos 2242 Rocket 4.3 22:47:17 10° N 22:51:39 45° ENE 22:53:21 31° SE
Cosmos 676 Rocket 4.0 22:55:11 25° SSW 22:58:16 84° WNW 23:03:35 10° NNE
BREEZE-M DEB (TANK) 2.5 22:56:03 10° W 22:58:43 85° N 23:06:24 10° E
Nimbus 7 Rocket 4.4 22:53:24 10° NNE 22:59:22 88° WNW 23:02:58 26° SSW
Cosmos 1805 Rocket 4.4 22:56:50 21° SW 22:59:23 44° WNW 23:03:35 10° N
Cosmos 2180 Rocket 4.4 23:00:38 28° S 23:04:05 87° W 23:10:17 10° N
Helios 1A 3.7 23:03:16 32° SSW 23:04:40 44° W 23:08:42 10° NNW
Cosmos 1741 Rocket 4.4 23:03:33 34° SSE 23:05:10 45° ESE 23:10:08 10° NE
NOSS 0 Rocket 4.4 23:04:28 31° SSE 23:06:47 45° ESE 23:12:36 10° NE
ALOS 2 2.5 23:07:55 42° SSE 23:09:22 83° ENE 23:13:47 10° NNW
Cosmos 1812 3.2 23:07:57 10° N 23:11:45 50° ENE 23:12:37 41° ESE
Meteor 2-6 Rocket 4.3 23:06:27 10° NNW 23:11:48 63° W 23:14:15 32° SSW
COSMOS 2428 2.7 23:08:52 26° SSW 23:12:13 88° ESE 23:18:00 10° NNE
Cosmos 1954 Rocket 4.2 23:11:50 23° SW 23:15:04 68° WNW 23:20:22 10° NNE
GP-B 3.0 23:11:39 10° N 23:16:07 82° E 23:17:30 44° S
NOSS 3-1 (C) 3.4 23:11:26 14° SW 23:16:20 83° NW 23:22:59 10° NE
SL-16 R/B 3.9 23:15:58 16° ESE 23:17:18 17° E 23:20:51 10° ENE
Cosmos 1850 Rocket 4.2 23:15:54 37° S 23:17:50 60° ESE 23:23:07 10° NNE
Cosmos 1666 Rocket 4.2 23:17:12 28° SW 23:19:17 50° WNW 23:23:41 10° N
BREEZE-M DEB (TANK) 2.0 23:17:10 10° W 23:19:20 81° N 23:23:11 10° E
Cosmos 1933 Rocket 3.7 23:20:12 44° SSE 23:21:23 63° E 23:25:46 10° NNE
Cosmos 1633 Rocket 3.6 23:22:33 31° SW 23:24:18 52° WNW 23:28:34 10° N
Cosmos 1980 3.9 23:26:06 36° SSE 23:28:07 53° ESE 23:33:39 10° NE
BREEZE-M DEB (TANK) 3.8 23:16:27 10° W 23:28:51 88° N 23:32:01 10° E
ERS-2 2.2 23:29:30 55° SE 23:30:10 72° ENE 23:33:51 10° N
Cosmos 1862 Rocket 3.9 23:28:38 10° NNW 23:32:52 53° W 23:34:03 39° SW
ISS -3.6 23:30:44 10° W 23:34:00 69° NNW 23:37:20 10° ENE
Meteor 1-27 Rocket 3.9 23:29:35 10° NNW 23:35:27 74° W 23:38:02 35° S
Mayak 0.3 23:31:51 10° N 23:35:36 31° WNW 23:38:00 18° WSW
Cosmos 2237 Rocket 2.3 23:34:16 37° S 23:36:16 57° ESE 23:41:48 10° NE
Cosmos 2360 Rocket 4.0 23:32:39 10° WSW 23:37:29 28° NW 23:42:21 10° NNE
Okean 1-7 3.4 23:34:08 10° N 23:38:22 54° ENE 23:39:39 38° SE
Cosmos 1470 Rocket 3.7 23:37:21 41° SSW 23:38:43 68° W 23:43:07 10° N
Cosmos 2266 Rocket 4.2 23:33:39 10° NNW 23:39:59 64° W 23:43:00 32° SSW
Cosmos 1869 Rocket 4.3 23:43:59 34° SE 23:45:05 40° E 23:49:13 10° NNE
Lacrosse 5 2.7 23:43:03 10° NW 23:48:01 51° NNE 23:52:57 10° E
Gbstr 26 Del rocket 3.4 23:44:28 10° WNW 23:48:08 54° N 23:51:59 10° E
Cosmos 540 Rocket 4.0 23:44:17 10° NNW 23:49:19 54° ENE 23:52:03 26° SE
Meteor 1-29 3.5 23:49:05 10° N 23:52:26 49° WNW 23:53:03 43° WSW
USA 229 DEB 4.4 23:46:19 10° WSW 23:52:49 52° NW 23:59:38 10° NE
USA 229 4.4 23:46:25 10° WSW 23:52:55 52° NW 23:59:45 10° NE
Cosmos 841 Rocket 3.5 23:49:40 10° NNW 23:54:51 76° ENE 23:57:05 34° SE
